User: anonymous   Login
Location: Unspecified
(42.3650°N, 71.1030°W)
Time: 21:52:43
(UTC+00:00)
Language:

Courier 1B Rocket - Orbit

View from above orbital plane
View from above orbital plane
View from above satellite
View from above satellite

Ground track
Ground track

The orbit data is extracted from the following two-line orbital elements,

1 00059U 60013B   24174.59430698  .00000145  00000-0  77325-4 0  9994
2 00059  28.2479 246.5739 0189097 352.5781   7.1987 13.53078375144956
Epoch (UTC): 22 June 2024 14:15:48
Eccentricity: 0.0189097
inclination: 28.2479°
perigee height: 920 km
apogee height: 1201 km
right ascension of ascending node: 246.5739°
argument of perigee: 352.5781°
revolutions per day: 13.53078375
mean anomaly at epoch: 7.1987°
orbit number at epoch: 14495

The dashed part of the orbit path shows where the satellite is in the earth's shadow,  

DLR